Regional Weather Roundup
Issued by NWS Charleston, SC

Current Version | Previous Version | Graphics & Text | Print | Product List | Glossary On
Versions: 1 2 3 4 5 6 7 8 9 10 11 12 13 14 15 16 17 18 19 20 21 22 23 24 25 26 27 28 29 30 31 32 33 34 35 36 37 38 39 40 41 42 43 44 45 46 47 48 49 50
000
ASUS42 KCHS 230927
RWRCHS

REGIONAL WEATHER ROUNDUP
NATIONAL WEATHER SERVICE CHARLESTON SC
500 AM EDT SUN JUL 23 2017

NOTE: "FAIR" INDICATES FEW OR NO CLOUDS BELOW 12,000 FEET WITH NO
SIGNIFICANT WEATHER AND/OR OBSTRUCTIONS TO VISIBILITY.

NOT ALL STATIONS ARE QUALITY CONTROLLED. USE DATA WITH CAUTION...
ESPECIALLY DEWPOINT OBSERVATIONS.

SCZ027-030-031-034>040-042>050-231000-
...SOUTHEAST SOUTH CAROLINA...

CITY           SKY/WX    TMP DP  RH WIND       PRES   REMARKS
N CHARLESTON   CLEAR     78  74  87 SW6       29.93S
WATERFRONT PRK   N/A     80  77  90 SW6       29.91S
JOHNS ISLAND   FAIR      79  75  89 SW5       29.94R
PINOPOLIS        N/A     79  75  89 SW7       29.85F
MONCKS CORNER  FAIR      75  73  94 SW6       29.93S
SUMMERVILLE    FAIR      75  73  94 CALM      29.95R
BEAUFORT MCAS  CLEAR     78  76  93 SW7       29.94S
BEAUFORT ARPT  FAIR      77  73  88 SW6       29.94S
HILTON HEAD IS PTCLDY    79  77  94 SW8       29.96R
WALTERBORO     MOSUNNY   75  73  94 CALM      29.95R
ALLENDALE      NOT AVBL

...SOUTHERN MIDLANDS AND PEE DEE...

CITY           SKY/WX    TMP DP  RH WIND       PRES   REMARKS
GEORGETOWN     FAIR      77  75  94 SW5       29.94S
KINGSTREE      FAIR      75  72  88 CALM      29.92R
ORANGEBURG     CLEAR     75  73  93 SW7       29.93R
BARNWELL       FAIR      79  77  94 SW5       29.93S
AIKEN          FAIR      73  72  94 SW5       29.96S
MANNING        FAIR      77  75  94 W7        29.92S
COLUMBIA       CLEAR     78  72  81 SW5       29.90S
SUMTER         CLEAR     77  73  88 S6        29.89S
FLORENCE       CLEAR     77  75  93 SW8       29.91R
MYRTLE BEACH   CLEAR     79  76  90 SW7       29.93S
N MYRTLE BEACH CLEAR     80  76  87 SW13      29.91S

$$

GAZ063-065-086>088-099>101-113>116-118-119-134>141-150-231000-
...SOUTHEAST GEORGIA...

CITY           SKY/WX    TMP DP  RH WIND       PRES   REMARKS
SAVANNAH ARPT  CLEAR    N/A N/A N/A SW7       29.96S
HUNTER AAF     MOCLDY    77  75  94 SW7       29.94R
FORT STEWART   CLOUDY    76  74  93 SW5       29.94R
STATESBORO     CLEAR     78  78 100 CALM      29.95R
SYLVANIA       SUNNY     77  76  97 CALM      29.95R
CLAXTON        FAIR      77  76  96 CALM      29.95S

...CSRA...CENTRAL AND FAR SOUTHEAST GEORGIA...

CITY           SKY/WX    TMP DP  RH WIND       PRES   REMARKS
THOMSON        CLEAR     76  73  88 NW3       29.98S
AUGUSTA-BUSH   CLEAR     79  74  84 SW6       29.91S
AUGUSTA-DANIEL CLEAR     80  72  76 VRB3      29.93S
SWAINSBORO     FAIR      77  77 100 CALM      29.96S
VIDALIA        CLEAR     77  75  94 SW3       29.96R
EASTMAN        FAIR      77  76  96 W3        29.98R
HAZLEHURST     FAIR      78  78 100 S5        29.96R
ALMA           CLOUDY    77  75  93 SW3       29.96S
WAYCROSS       CLOUDY    79  79 100 SW5       29.98R
JESUP          NOT AVBL
BAXLEY         CLOUDY    77  77 100 SW5       29.97R
BRUNSWICK      CLOUDY    77  77 100 SW6       29.99R
SAINT SIMONS   CLOUDY    78  76  93 SW9       29.98R

$$

SCZ027-028-034-036>038-045-046-048>050-GAZ119-141-231000-
...LAKE AND SUPPLEMENTAL COASTAL OBSERVATIONS...

STATION/POSITION TIME  TEMP    WIND        PRES    WAVE   SWELL
                       AIR SEA DIR/SP/G            HT/PER HT/PER/DIR
                 (UTC) (F)     (DEG/KT/KT) (MB)    (FT/S) (FT/S/D)
WINYAH BAY       0845   79     240/  6     1013.0S
LAKE MURRAY      NOT AVBL
ACE BASIN NERRS  0845   78     240/  1     1014.0S
FORT PULASKI     0900   77 86  240/  5/  8 1014.7
SAPELO ISLAND    0900   78     230/ 10     1015.0

$$

ANZ835-935-AMZ111-154-330-350-352-354-370-450-454-472-231000-
...C-MAN AND BUOY OBSERVATIONS...

STATION/POSITION TIME  TEMP    WIND        PRES    WAVE   SWELL
                       AIR SEA DIR/SP/G            HT/PER HT/PER/DIR
                 (UTC) (F)     (DEG/KT/KT) (MB)    (FT/S) (FT/S/D)
BUOY 41004       0910   81 83  230/ 16/ 19 1013.8
BUOY 41008       0850   79 80  210/ 16/ 17 1014.5R   3/ 4   2/ 80/ 8
FOLLY BEACH CMAN 0900   80     240/  6/  8 1014.3S
CAPERS NEARSHORE 0908   81 83  260/ 14/ 19 1013.4R
FRIPP NEARSHORE  0908   82 85  240/ 14/ 17 1013.5S


STATION/POSITION TIME  TEMP    WIND        PRES    WAVE   SWELL
                       AIR SEA DIR/SP/G            HT/PER HT/PER/DIR
                 (UTC) (F)     (DEG/KT/KT) (MB)    (FT/S) (FT/S/D)
5E ST. MARYS GA  0900      80                N/A     2/ 9
FRYING PAN BUOY  0910   83 84  230/ 19/ 23 1013.5
BUOY 41025       0850   83 82  250/ 23/ 25 1011.6F   5/ 6   2/150/ 9
CAPE LOOKOUT NC  0900   81     230/ 12/ 17 1012.3R
BUOY 41002       0850   83 83  210/ 17/ 21 1015.4F   5/ 9   3/ 90/ 9
BUOY 41010       0910   82 85  150/ 12/ 16 1016.6
ST AUGUSTINE FL  0900   76 77  230/  4/  5 1015.8F


$$




USA.gov is the U.S. government's official web portal to all federal, state and local government web resources and services.